SCP
0 0 0 0 0 0 0 0 0 0 0 0 0 0 0 0 0 0 0 0 0 0 0 0 0 0 0 0 0 0 0 0 0 0 0 0 0 0 0 0 0 -0 0 0
0 0 0 0 0 0 0 0 0 0 0 0 0 0 0 0 0 0 0 0 0 0 0 0 0 0 0 0 0 0 0 0 0 0 0 0 0 0 0 0 0 0 -0 -0
0 0 0 0 0 0 0 0 0 0 0 0 0 0 0 0 0 0 0 0 0 0 0 0 0 0 0 0 0 0 0 0 0 0 0 0 0 0 0 0 0 0 -0 -0
0 0 0 0 0 0 0 0 0 0 0 0 0 0 0 0 0 0 0 0 0 0 0 0 0 0 0 0 0 0 0 0 0 0 0 0 0 0 0 0 0 0 -0 -0
0 0 0 0 0 0 0 0 0 0 0 0 0 0 0 0 0 0 0 0 0 0 0 0 -0 0 0 0 0 0 0 0 0 0 0 0 0 0 -0 0 0 -0 -0 -0
0 0 0 0 0 0 0 0 0 0 0 0 0 0 0 0 0 0 0 0 0 0 0 0 0 0 0 0 0 0 0 0 0 0 0 0 0 0 -0 -0 0 -0 -0 -0
0 0 0 0 0 0 0 0 0 0 0 0 0 0 0 0 0 0 0 0 0 0 0 0 0 0 0 0 0 0 0 0 0 0 0 0 0 -0 -0 -0 0 0 -0 -0
0 0 0 0 0 0 0 0 0 0 0 0 0 0 0 0 0 0 0 0 0 0 0 0 0 0 0 0 0 0 0 0 0 0 0 0 0 0 -0 0 0 0 0 -0
0 0 0 0 0 0 0 0 0 0 0 0 0 0 0 0 0 0 0 0 0 0 0 0 0 0 0 0 0 0 0 0 0 0 0 0 0 0 -0 -0 -0 0 0 0
0 0 0 0 0 0 0 0 0 0 0 0 0 0 0 0 0 0 0 0 0 0 0 0 0 0 0 0 0 0 0 0 0 0 0 0 0 0 0 0 -0 0 0 0
0 0 0 0 0 0 0 0 0 0 0 0 0 0 0 0 0 0 0 0 0 0 0 0 0 0 0 0 0 0 0 0 0 0 0 0 0 0 0 0 0 0 0 0
0 0 0 0 0 0 0 0 0 0 0 0 0 0 0 0 0 0 0 0 0 0 0 0 0 0 0 0 0 0 0 0 0 0 0 0 0 0 0 0 0 0 0 0
0 0 0 0 0 0 0 0 0 0 0 0 0 0 0 0 0 0 0 0 0 0 0 0 0 0 0 0 0 0 0 0 0 0 0 0 0 0 0 0 0 0 0 0
0 0 0 0 0 0 0 0 0 0 0 0 0 0 0 0 0 0 0 0 0 0 0 0 0 0 0 0 0 0 0 0 0 0 0 0 0 0 0 0 0 0 0 0
0 0 0 0 0 0 0 0 0 0 0 0 0 0 0 0 0 0 0 0 0 0 0 0 0 0 0 0 0 0 0 0 0 0 0 0 0 0 -0 0 0 0 0 0
0 0 0 0 0 0 0 0 0 0 0 0 0 0 0 0 0 0 0 0 0 0 0 0 0 0 0 0 0 0 0 0 0 0 0 0 0 0 -0 -0 0 0 0 -0
0 0 0 0 0 0 0 0 0 0 0 0 0 0 0 0 0 0 0 0 0 0 0 0 0 0 0 0 0 0 0 0 0 0 0 0 0 0 0 0 0 0 -0 -0
0 0 0 0 0 0 0 0 0 0 0 0 0 0 0 0 0 0 0 0 0 0 0 0 0 0 0 0 0 0 0 0 0 0 0 0 0 0 0 0 0 0 -0 -0
0 0 0 0 0 0 0 0 0 0 0 0 0 0 0 0 0 0 0 0 0 0 0 0 0 0 0 0 0 0 0 0 0 0 0 0 0 0 0 0 0 0 0 0
0 0 0 0 0 0 0 0 0 0 0 0 0 0 0 0 0 0 0 0 0 0 0 0 0 0 0 0 0 0 0 0 0 0 0 0 0 0 0 0 0 0 0 0
0 0 0 0 0 0 0 0 0 0 0 0 0 0 0 0 0 0 0 0 0 0 0 0 0 0 0 0 0 0 0 0 0 0 0 0 0 0 0 0 -0 -0 0 0
0 0 0 0 0 0 0 0 0 0 0 0 0 0 0 0 0 0 0 0 0 0 0 0 0 0 0 0 0 0 0 0 0 0 0 0 0 0 0 0 -0 0 0 0
0 0 0 0 0 0 0 0 0 0 0 0 0 0 0 0 0 0 0 0 0 0 0 0 0 0 0 0 0 0 0 0 0 0 0 0 0 0 0 0 -0 -0 0 0
0 0 0 0 0 0 0 0 0 0 0 0 0 0 0 0 0 0 0 0 0 0 0 0 0 0 0 0 0 0 0 0 0 -0 -0 0 0 0 0 0 0 -0 -0 0
0 0 0 0 0 0 0 0 0 0 0 0 0 0 0 0 0 0 0 0 0 0 0 0 0 0 0 0 0 0 0 0 0 -0 -0 -0 -0 0 0 0 0 -0 -0 -0
0 0 0 0 0 0 0 0 0 0 0 0 0 0 0 0 0 0 0 0 0 0 0 0 0 0 0 0 0 0 0 0 -0 -0 -0 -0 -0 0 0 0 -0 -0 -0 -0
Wind_Speed_500mb
8 3 14 10 10 7 10 13 20 19 7 1 14 15 15 36 35 31 20 14 12 20 29 34 32 42 67 68 71 84 82 86 86 86 86 88 89 91 83 89 82 91 70 75
10 14 8 6 6 8 11 18 22 11 9 6 19 31 13 30 32 33 20 9 11 24 31 31 35 52 77 77 84 92 90 94 96 88 89 95 94 91 88 84 84 91 88 83
8 14 6 5 10 13 13 16 10 8 14 20 33 28 19 17 21 24 19 8 15 27 27 28 37 58 86 83 86 90 95 98 100 88 88 110 92 89 83 88 82 82 82 93
16 7 5 10 13 9 10 8 7 15 10 8 13 14 7 28 21 19 21 15 16 25 26 32 45 79 81 79 85 91 92 102 94 82 97 85 88 99 87 89 88 89 80 79
16 3 6 8 7 4 6 4 12 19 22 20 19 12 9 39 26 22 20 13 20 22 27 38 60 71 79 78 86 91 97 95 94 98 90 91 91 92 105 96 85 91 83 76
26 12 6 3 2 4 13 13 18 25 16 9 16 11 9 20 29 20 16 18 18 22 29 54 72 72 77 83 89 88 93 99 101 99 111 96 95 83 77 82 91 90 84 76
1 19 7 2 7 9 7 9 8 10 2 12 11 9 15 12 19 20 16 18 21 29 52 57 67 75 77 90 86 99 112 120 122 115 100 90 94 95 95 77 68 82 78 71
8 8 14 10 2 3 4 1 8 13 6 10 15 14 9 26 37 27 20 22 26 36 38 54 63 74 79 80 92 102 112 125 124 118 105 93 88 88 86 88 84 72 63 74
9 8 7 8 6 2 8 8 3 4 5 5 10 11 10 23 17 18 18 26 25 29 42 55 68 75 69 83 92 99 103 121 112 110 105 95 88 86 84 82 89 87 61 60
8 14 4 5 2 3 3 5 7 2 6 12 10 14 9 16 10 10 10 15 21 35 51 57 66 62 77 80 96 96 103 102 104 113 92 100 88 90 93 83 84 85 80 57
3 8 3 7 13 14 7 7 8 2 8 9 7 9 13 15 13 6 4 17 32 40 49 61 68 67 79 76 89 100 111 112 112 103 107 100 97 86 79 85 84 73 67 67
11 7 10 15 6 6 2 13 18 9 11 7 6 29 8 7 17 17 6 15 25 40 53 70 63 81 84 86 98 108 122 124 121 116 114 98 108 85 93 74 73 71 73 71
15 7 6 12 6 1 10 12 9 9 7 33 11 17 10 16 18 9 18 23 35 48 62 68 68 83 83 85 101 112 114 121 123 125 114 112 98 89 85 89 81 80 71 75
16 9 20 35 16 10 11 16 21 26 23 41 50 62 30 29 30 15 23 29 39 50 61 62 80 94 89 86 101 113 119 115 123 121 114 112 103 94 88 83 81 81 64 69
9 17 22 42 32 19 27 18 29 38 48 36 68 44 46 25 10 11 18 27 39 49 55 59 85 92 91 93 108 115 114 120 124 125 117 110 103 97 90 90 77 66 60 70
9 8 12 29 12 19 36 35 34 44 51 50 55 65 36 47 40 9 18 28 42 49 49 72 84 92 93 96 113 118 121 121 124 116 118 107 103 99 91 86 79 64 64 73
16 11 7 13 9 16 30 46 55 54 41 45 45 58 26 17 5 6 16 33 37 41 62 73 81 92 99 103 108 115 118 120 118 111 116 103 98 95 96 89 84 80 81 68
15 12 9 3 7 13 7 4 9 26 39 39 48 45 8 5 5 12 25 24 26 53 67 73 82 91 93 99 104 110 113 112 109 107 111 99 102 100 98 91 85 82 77 72
14 13 7 8 13 22 32 10 15 15 14 23 36 28 11 12 6 20 10 16 42 54 60 67 73 80 91 97 101 108 114 110 104 103 122 107 102 97 92 86 81 76 75 68
16 16 12 9 9 16 3 5 24 12 20 29 26 15 13 13 3 7 15 35 44 49 57 64 69 75 86 93 97 101 108 116 112 120 127 105 87 85 89 85 81 74 67 62
13 10 32 25 16 19 14 23 23 10 8 11 29 26 24 9 20 15 31 33 38 48 57 61 66 75 83 91 99 106 109 108 117 119 124 99 91 96 91 89 84 75 63 50
26 23 12 16 14 31 35 21 17 10 29 41 33 32 33 38 33 31 28 33 41 50 57 61 72 81 83 86 93 102 107 112 118 122 119 101 98 95 85 80 67 62 52 48
14 19 17 28 17 3 68 13 47 26 40 45 36 31 33 31 25 22 26 34 44 52 57 64 72 81 83 86 88 98 105 111 116 119 118 102 99 91 87 74 58 52 45 39
20 30 9 10 19 23 40 36 28 38 31 30 27 26 28 23 20 20 23 30 39 44 54 63 71 77 83 85 86 88 97 104 110 115 114 103 99 99 89 73 53 43 43 52
14 31 26 11 17 5 32 54 56 42 37 30 27 25 23 21 22 22 23 28 33 39 49 56 62 69 77 82 84 88 93 98 105 109 109 101 95 94 93 80 63 45 34 44
18 19 20 17 28 37 22 52 49 46 47 41 33 30 28 27 24 22 23 26 30 39 47 53 57 65 72 77 81 84 87 91 96 102 104 97 92 92 88 88 77 41 38 34
Wind_Direction_500mb
311 309 281 42 54 328 271 261 270 277 128 189 244 261 265 150 145 137 123 101 59 31 6 1 356 351 344 347 335 339 331 329 324 316 313 316 304 304 298 303 297 300 293 286
317 271 60 21 286 252 270 269 273 286 146 340 267 260 135 164 167 153 134 114 48 13 4 358 352 347 347 344 337 338 330 326 322 315 308 311 306 297 295 296 298 298 297 295
294 281 47 289 297 283 281 280 307 285 313 274 273 269 151 160 146 151 159 146 39 13 357 352 344 348 347 343 334 331 328 325 321 316 307 308 303 297 293 294 293 294 297 302
269 75 39 311 278 285 280 51 317 279 303 240 54 286 104 167 172 181 161 85 27 1 355 343 344 349 342 334 330 329 329 322 322 313 312 310 303 298 296 290 291 291 294 295
250 275 306 277 278 82 251 343 257 259 251 284 254 255 287 158 188 181 142 78 22 358 349 344 354 343 333 331 330 328 327 325 316 311 311 310 304 295 300 295 290 289 290 291
248 129 213 294 98 188 323 287 273 251 256 266 258 226 217 179 197 142 126 52 21 356 348 353 347 331 332 330 330 331 329 323 320 313 315 305 292 296 302 297 292 289 287 289
251 210 113 178 265 157 227 290 324 332 26 230 85 334 246 142 104 125 104 44 16 360 360 346 334 331 331 332 332 326 332 331 329 324 322 315 309 293 290 295 300 294 282 286
265 298 168 152 210 90 203 9 163 259 261 267 14 252 245 127 130 135 67 33 11 2 345 336 331 330 329 331 326 328 330 332 331 328 322 318 313 311 299 288 287 296 304 286
308 239 95 31 45 118 147 198 360 331 62 353 232 262 76 139 152 97 33 14 2 346 339 335 331 328 327 326 324 326 326 330 329 326 322 318 314 311 307 299 289 282 293 299
351 300 49 91 120 139 263 155 85 143 293 266 251 252 232 185 159 81 18 352 347 346 340 332 326 326 325 322 323 325 325 325 326 326 320 318 312 307 309 305 294 280 285 295
51 204 158 127 202 180 165 224 223 338 196 220 293 249 154 158 167 131 343 357 354 338 331 327 327 321 325 321 323 325 327 328 328 327 321 322 310 314 307 301 304 286 280 280
197 239 245 246 78 41 301 220 181 165 240 253 246 261 328 335 148 126 47 1 338 332 329 328 322 323 325 324 326 328 330 329 331 325 324 318 317 305 309 306 305 297 279 277
177 220 327 287 359 128 235 204 242 254 232 235 235 252 123 156 184 24 35 355 342 332 328 326 319 324 323 324 325 328 328 328 328 328 323 319 316 308 305 299 292 292 293 273
167 212 204 257 266 142 223 219 212 220 237 254 237 259 255 270 291 345 2 342 335 328 324 320 317 324 324 323 326 330 328 327 326 327 321 318 316 311 307 303 299 292 290 285
172 231 230 255 273 278 268 255 219 218 234 231 261 246 265 263 282 327 335 331 326 325 323 316 320 323 323 324 330 331 327 329 329 327 325 318 314 312 307 306 306 293 291 286
180 244 243 267 268 267 264 247 244 245 241 247 256 271 260 283 283 326 324 333 321 318 313 318 323 324 324 327 332 331 331 328 330 328 325 322 314 312 310 307 304 293 288 286
185 199 174 248 63 337 283 234 232 242 237 237 245 250 286 262 243 340 332 321 314 307 317 323 323 325 327 330 332 331 328 331 329 325 327 319 317 311 308 303 300 295 284 277
182 173 175 272 101 251 248 200 235 241 250 245 251 255 216 158 119 300 316 299 307 321 322 323 324 326 327 329 334 331 332 330 327 326 327 320 318 313 309 304 299 295 289 281
183 171 180 216 201 299 295 204 173 182 251 228 235 243 181 127 51 295 263 295 322 318 318 319 322 324 329 335 335 335 335 332 331 329 331 327 320 319 317 315 312 307 294 279
186 201 203 165 223 235 163 116 104 95 269 219 208 209 153 115 162 246 276 300 310 316 318 321 326 330 336 339 338 334 337 340 336 335 336 334 334 332 326 323 318 313 302 283
185 200 220 227 239 273 216 154 136 148 250 127 186 159 160 186 228 243 285 302 312 319 325 330 330 336 342 343 342 341 342 340 339 339 340 340 343 339 325 318 313 314 308 285
176 171 194 205 221 252 152 139 190 181 151 152 161 179 206 232 235 266 288 306 319 328 333 335 337 341 346 349 344 343 345 344 345 347 343 346 348 334 334 328 327 320 305 289
203 192 178 197 212 119 167 179 199 174 167 175 185 198 214 214 237 261 289 315 328 332 337 340 341 342 349 351 350 345 346 348 347 351 346 351 344 344 342 340 339 341 321 300
226 207 218 155 219 225 198 203 188 215 192 191 200 211 213 223 244 266 296 316 324 333 340 342 342 344 348 350 352 351 350 350 350 355 349 352 347 348 348 350 346 343 352 318
183 172 194 245 265 228 218 220 224 223 217 216 231 231 228 245 259 272 295 310 323 336 341 344 345 346 349 351 354 354 354 355 355 357 353 355 352 349 349 352 352 347 340 357
186 173 185 212 197 205 208 222 227 213 216 226 226 224 234 243 250 266 290 308 330 338 343 346 348 349 351 352 355 356 358 360 1 1 357 358 357 352 353 354 354 11 6 9
Wind_Speed_850mb
8 3 14 10 10 7 10 13 20 19 7 1 14 15 15 36 35 31 20 14 12 20 29 34 32 42 67 68 71 84 82 86 86 86 86 88 89 91 83 89 82 91 70 75
10 14 8 6 6 8 11 18 22 11 9 6 19 31 13 30 32 33 20 9 11 24 31 31 35 52 77 77 84 92 90 94 96 88 89 95 94 91 88 84 84 91 88 83
8 14 6 5 10 13 13 16 10 8 14 20 33 28 19 17 21 24 19 8 15 27 27 28 37 58 86 83 86 90 95 98 100 88 88 110 92 89 83 88 82 82 82 93
16 7 5 10 13 9 10 8 7 15 10 8 13 14 7 28 21 19 21 15 16 25 26 32 45 79 81 79 85 91 92 102 94 82 97 85 88 99 87 89 88 89 80 79
16 3 6 8 7 4 6 4 12 19 22 20 19 12 9 39 26 22 20 13 20 22 27 38 60 71 79 78 86 91 97 95 94 98 90 91 91 92 105 96 85 91 83 76
26 12 6 3 2 4 13 13 18 25 16 9 16 11 9 20 29 20 16 18 18 22 29 54 72 72 77 83 89 88 93 99 101 99 111 96 95 83 77 82 91 90 84 76
1 19 7 2 7 9 7 9 8 10 2 12 11 9 15 12 19 20 16 18 21 29 52 57 67 75 77 90 86 99 112 120 122 115 100 90 94 95 95 77 68 82 78 71
8 8 14 10 2 3 4 1 8 13 6 10 15 14 9 26 37 27 20 22 26 36 38 54 63 74 79 80 92 102 112 125 124 118 105 93 88 88 86 88 84 72 63 74
9 8 7 8 6 2 8 8 3 4 5 5 10 11 10 23 17 18 18 26 25 29 42 55 68 75 69 83 92 99 103 121 112 110 105 95 88 86 84 82 89 87 61 60
8 14 4 5 2 3 3 5 7 2 6 12 10 14 9 16 10 10 10 15 21 35 51 57 66 62 77 80 96 96 103 102 104 113 92 100 88 90 93 83 84 85 80 57
3 8 3 7 13 14 7 7 8 2 8 9 7 9 13 15 13 6 4 17 32 40 49 61 68 67 79 76 89 100 111 112 112 103 107 100 97 86 79 85 84 73 67 67
11 7 10 15 6 6 2 13 18 9 11 7 6 29 8 7 17 17 6 15 25 40 53 70 63 81 84 86 98 108 122 124 121 116 114 98 108 85 93 74 73 71 73 71
15 7 6 12 6 1 10 12 9 9 7 33 11 17 10 16 18 9 18 23 35 48 62 68 68 83 83 85 101 112 114 121 123 125 114 112 98 89 85 89 81 80 71 75
16 9 20 35 16 10 11 16 21 26 23 41 50 62 30 29 30 15 23 29 39 50 61 62 80 94 89 86 101 113 119 115 123 121 114 112 103 94 88 83 81 81 64 69
9 17 22 42 32 19 27 18 29 38 48 36 68 44 46 25 10 11 18 27 39 49 55 59 85 92 91 93 108 115 114 120 124 125 117 110 103 97 90 90 77 66 60 70
9 8 12 29 12 19 36 35 34 44 51 50 55 65 36 47 40 9 18 28 42 49 49 72 84 92 93 96 113 118 121 121 124 116 118 107 103 99 91 86 79 64 64 73
16 11 7 13 9 16 30 46 55 54 41 45 45 58 26 17 5 6 16 33 37 41 62 73 81 92 99 103 108 115 118 120 118 111 116 103 98 95 96 89 84 80 81 68
15 12 9 3 7 13 7 4 9 26 39 39 48 45 8 5 5 12 25 24 26 53 67 73 82 91 93 99 104 110 113 112 109 107 111 99 102 100 98 91 85 82 77 72
14 13 7 8 13 22 32 10 15 15 14 23 36 28 11 12 6 20 10 16 42 54 60 67 73 80 91 97 101 108 114 110 104 103 122 107 102 97 92 86 81 76 75 68
16 16 12 9 9 16 3 5 24 12 20 29 26 15 13 13 3 7 15 35 44 49 57 64 69 75 86 93 97 101 108 116 112 120 127 105 87 85 89 85 81 74 67 62
13 10 32 25 16 19 14 23 23 10 8 11 29 26 24 9 20 15 31 33 38 48 57 61 66 75 83 91 99 106 109 108 117 119 124 99 91 96 91 89 84 75 63 50
26 23 12 16 14 31 35 21 17 10 29 41 33 32 33 38 33 31 28 33 41 50 57 61 72 81 83 86 93 102 107 112 118 122 119 101 98 95 85 80 67 62 52 48
14 19 17 28 17 3 68 13 47 26 40 45 36 31 33 31 25 22 26 34 44 52 57 64 72 81 83 86 88 98 105 111 116 119 118 102 99 91 87 74 58 52 45 39
20 30 9 10 19 23 40 36 28 38 31 30 27 26 28 23 20 20 23 30 39 44 54 63 71 77 83 85 86 88 97 104 110 115 114 103 99 99 89 73 53 43 43 52
14 31 26 11 17 5 32 54 56 42 37 30 27 25 23 21 22 22 23 28 33 39 49 56 62 69 77 82 84 88 93 98 105 109 109 101 95 94 93 80 63 45 34 44
18 19 20 17 28 37 22 52 49 46 47 41 33 30 28 27 24 22 23 26 30 39 47 53 57 65 72 77 81 84 87 91 96 102 104 97 92 92 88 88 77 41 38 34
Wind_Direction_850mb
311 309 281 42 54 328 271 261 270 277 128 189 244 261 265 150 145 137 123 101 59 31 6 1 356 351 344 347 335 339 331 329 324 316 313 316 304 304 298 303 297 300 293 286
317 271 60 21 286 252 270 269 273 286 146 340 267 260 135 164 167 153 134 114 48 13 4 358 352 347 347 344 337 338 330 326 322 315 308 311 306 297 295 296 298 298 297 295
294 281 47 289 297 283 281 280 307 285 313 274 273 269 151 160 146 151 159 146 39 13 357 352 344 348 347 343 334 331 328 325 321 316 307 308 303 297 293 294 293 294 297 302
269 75 39 311 278 285 280 51 317 279 303 240 54 286 104 167 172 181 161 85 27 1 355 343 344 349 342 334 330 329 329 322 322 313 312 310 303 298 296 290 291 291 294 295
250 275 306 277 278 82 251 343 257 259 251 284 254 255 287 158 188 181 142 78 22 358 349 344 354 343 333 331 330 328 327 325 316 311 311 310 304 295 300 295 290 289 290 291
248 129 213 294 98 188 323 287 273 251 256 266 258 226 217 179 197 142 126 52 21 356 348 353 347 331 332 330 330 331 329 323 320 313 315 305 292 296 302 297 292 289 287 289
251 210 113 178 265 157 227 290 324 332 26 230 85 334 246 142 104 125 104 44 16 360 360 346 334 331 331 332 332 326 332 331 329 324 322 315 309 293 290 295 300 294 282 286
265 298 168 152 210 90 203 9 163 259 261 267 14 252 245 127 130 135 67 33 11 2 345 336 331 330 329 331 326 328 330 332 331 328 322 318 313 311 299 288 287 296 304 286
308 239 95 31 45 118 147 198 360 331 62 353 232 262 76 139 152 97 33 14 2 346 339 335 331 328 327 326 324 326 326 330 329 326 322 318 314 311 307 299 289 282 293 299
351 300 49 91 120 139 263 155 85 143 293 266 251 252 232 185 159 81 18 352 347 346 340 332 326 326 325 322 323 325 325 325 326 326 320 318 312 307 309 305 294 280 285 295
51 204 158 127 202 180 165 224 223 338 196 220 293 249 154 158 167 131 343 357 354 338 331 327 327 321 325 321 323 325 327 328 328 327 321 322 310 314 307 301 304 286 280 280
197 239 245 246 78 41 301 220 181 165 240 253 246 261 328 335 148 126 47 1 338 332 329 328 322 323 325 324 326 328 330 329 331 325 324 318 317 305 309 306 305 297 279 277
177 220 327 287 359 128 235 204 242 254 232 235 235 252 123 156 184 24 35 355 342 332 328 326 319 324 323 324 325 328 328 328 328 328 323 319 316 308 305 299 292 292 293 273
167 212 204 257 266 142 223 219 212 220 237 254 237 259 255 270 291 345 2 342 335 328 324 320 317 324 324 323 326 330 328 327 326 327 321 318 316 311 307 303 299 292 290 285
172 231 230 255 273 278 268 255 219 218 234 231 261 246 265 263 282 327 335 331 326 325 323 316 320 323 323 324 330 331 327 329 329 327 325 318 314 312 307 306 306 293 291 286
180 244 243 267 268 267 264 247 244 245 241 247 256 271 260 283 283 326 324 333 321 318 313 318 323 324 324 327 332 331 331 328 330 328 325 322 314 312 310 307 304 293 288 286
185 199 174 248 63 337 283 234 232 242 237 237 245 250 286 262 243 340 332 321 314 307 317 323 323 325 327 330 332 331 328 331 329 325 327 319 317 311 308 303 300 295 284 277
182 173 175 272 101 251 248 200 235 241 250 245 251 255 216 158 119 300 316 299 307 321 322 323 324 326 327 329 334 331 332 330 327 326 327 320 318 313 309 304 299 295 289 281
183 171 180 216 201 299 295 204 173 182 251 228 235 243 181 127 51 295 263 295 322 318 318 319 322 324 329 335 335 335 335 332 331 329 331 327 320 319 317 315 312 307 294 279
186 201 203 165 223 235 163 116 104 95 269 219 208 209 153 115 162 246 276 300 310 316 318 321 326 330 336 339 338 334 337 340 336 335 336 334 334 332 326 323 318 313 302 283
185 200 220 227 239 273 216 154 136 148 250 127 186 159 160 186 228 243 285 302 312 319 325 330 330 336 342 343 342 341 342 340 339 339 340 340 343 339 325 318 313 314 308 285
176 171 194 205 221 252 152 139 190 181 151 152 161 179 206 232 235 266 288 306 319 328 333 335 337 341 346 349 344 343 345 344 345 347 343 346 348 334 334 328 327 320 305 289
203 192 178 197 212 119 167 179 199 174 167 175 185 198 214 214 237 261 289 315 328 332 337 340 341 342 349 351 350 345 346 348 347 351 346 351 344 344 342 340 339 341 321 300
226 207 218 155 219 225 198 203 188 215 192 191 200 211 213 223 244 266 296 316 324 333 340 342 342 344 348 350 352 351 350 350 350 355 349 352 347 348 348 350 346 343 352 318
183 172 194 245 265 228 218 220 224 223 217 216 231 231 228 245 259 272 295 310 323 336 341 344 345 346 349 351 354 354 354 355 355 357 353 355 352 349 349 352 352 347 340 357
186 173 185 212 197 205 208 222 227 213 216 226 226 224 234 243 250 266 290 308 330 338 343 346 348 349 351 352 355 356 358 360 1 1 357 358 357 352 353 354 354 11 6 9